Year,Month,Day,Hour,Minute,Value (Times are PST for temperature in C)
2009,09,30,00,00,5.70
2009,09,30,00,01,5.70
2009,09,30,00,02,5.70
2009,09,30,00,03,5.60
2009,09,30,00,04,5.60
2009,09,30,00,05,5.60
2009,09,30,00,06,5.60
2009,09,30,00,07,5.50
2009,09,30,00,08,5.50
2009,09,30,00,09,5.40
2009,09,30,00,10,5.40
2009,09,30,00,11,5.40
2009,09,30,00,12,5.40
2009,09,30,00,13,5.30
2009,09,30,00,14,5.30
2009,09,30,00,15,5.30
2009,09,30,00,16,5.30
2009,09,30,00,17,5.30
2009,09,30,00,18,5.20
2009,09,30,00,19,5.20
2009,09,30,00,20,5.20
2009,09,30,00,21,5.20
2009,09,30,00,22,5.10
2009,09,30,00,23,5.10
2009,09,30,00,24,5.10
2009,09,30,00,25,5.10
2009,09,30,00,26,5.10
2009,09,30,00,27,5.10
2009,09,30,00,28,5.10
2009,09,30,00,29,5.00
2009,09,30,00,30,5.00
2009,09,30,00,31,5.00
2009,09,30,00,32,5.00
2009,09,30,00,33,4.90
2009,09,30,00,34,4.90
2009,09,30,00,35,4.90
2009,09,30,00,36,4.90
2009,09,30,00,37,4.90
2009,09,30,00,38,4.90
2009,09,30,00,39,4.90
2009,09,30,00,40,4.80
2009,09,30,00,41,4.80
2009,09,30,00,42,4.80
2009,09,30,00,43,4.80
2009,09,30,00,44,4.80
2009,09,30,00,45,4.80
2009,09,30,00,46,4.80
2009,09,30,00,47,4.80
2009,09,30,00,48,4.80
2009,09,30,00,49,4.80
2009,09,30,00,50,4.80
2009,09,30,00,51,4.80
2009,09,30,00,52,5.00
2009,09,30,00,53,5.00
2009,09,30,00,54,5.00
2009,09,30,00,55,5.10
2009,09,30,00,56,5.10
2009,09,30,00,57,5.10
2009,09,30,00,58,5.10
2009,09,30,00,59,5.10
2009,09,30,01,00,5.10
2009,09,30,01,01,5.10
2009,09,30,01,02,5.10
2009,09,30,01,03,5.10
2009,09,30,01,04,5.20
2009,09,30,01,05,5.30
2009,09,30,01,06,5.30
2009,09,30,01,07,5.30
2009,09,30,01,08,5.40
2009,09,30,01,09,5.40
2009,09,30,01,10,5.40
2009,09,30,01,11,5.40
2009,09,30,01,12,5.40
2009,09,30,01,13,5.50
2009,09,30,01,14,5.40
2009,09,30,01,15,5.40
2009,09,30,01,16,5.40
2009,09,30,01,17,5.40
2009,09,30,01,18,5.40
2009,09,30,01,19,5.50
2009,09,30,01,20,5.50
2009,09,30,01,21,5.50
2009,09,30,01,22,5.50
2009,09,30,01,23,5.40
2009,09,30,01,24,5.40
2009,09,30,01,25,5.40
2009,09,30,01,26,5.40
2009,09,30,01,27,5.40
2009,09,30,01,28,5.40
2009,09,30,01,29,5.40
2009,09,30,01,30,5.40
2009,09,30,01,31,5.40
2009,09,30,01,32,5.40
2009,09,30,01,33,5.50
2009,09,30,01,34,5.50
2009,09,30,01,35,5.50
2009,09,30,01,36,5.40
2009,09,30,01,37,5.40
2009,09,30,01,38,5.40
2009,09,30,01,39,5.40
2009,09,30,01,40,5.50
2009,09,30,01,41,5.50
2009,09,30,01,42,5.50
2009,09,30,01,43,5.50
2009,09,30,01,44,5.50
2009,09,30,01,45,5.50
2009,09,30,01,46,5.50
2009,09,30,01,47,5.60
2009,09,30,01,48,5.70
2009,09,30,01,49,5.70
2009,09,30,01,50,5.70
2009,09,30,01,51,5.60
2009,09,30,01,52,5.60
2009,09,30,01,53,5.60
2009,09,30,01,54,5.60
2009,09,30,01,55,5.60
2009,09,30,01,56,5.60
2009,09,30,01,57,5.50
2009,09,30,01,58,5.50
2009,09,30,01,59,5.40
2009,09,30,02,00,5.40
2009,09,30,02,01,5.30
2009,09,30,02,02,5.30
2009,09,30,02,03,5.30
2009,09,30,02,04,5.20
2009,09,30,02,05,5.20
2009,09,30,02,06,5.20
2009,09,30,02,07,5.10
2009,09,30,02,08,5.10
2009,09,30,02,09,5.10
2009,09,30,02,10,5.10
2009,09,30,02,11,5.10
2009,09,30,02,12,5.10
2009,09,30,02,13,5.10
2009,09,30,02,14,5.10
2009,09,30,02,15,5.10
2009,09,30,02,16,5.10
2009,09,30,02,17,5.10
2009,09,30,02,18,5.10
2009,09,30,02,19,5.10
2009,09,30,02,20,5.00
2009,09,30,02,21,5.00
2009,09,30,02,22,5.00
2009,09,30,02,23,4.90
2009,09,30,02,24,4.90
2009,09,30,02,25,4.90
2009,09,30,02,26,4.90
2009,09,30,02,27,4.90
2009,09,30,02,28,5.00
2009,09,30,02,29,5.10
2009,09,30,02,30,5.20
2009,09,30,02,31,5.10
2009,09,30,02,32,5.10
2009,09,30,02,33,5.10
2009,09,30,02,34,5.10
2009,09,30,02,35,5.00
2009,09,30,02,36,5.00
2009,09,30,02,37,4.90
2009,09,30,02,38,4.90
2009,09,30,02,39,4.80
2009,09,30,02,40,4.70
2009,09,30,02,41,4.70
2009,09,30,02,42,4.70
2009,09,30,02,43,4.60
2009,09,30,02,44,4.60
2009,09,30,02,45,4.60
2009,09,30,02,46,4.60
2009,09,30,02,47,4.50
2009,09,30,02,48,4.50
2009,09,30,02,49,4.50
2009,09,30,02,50,4.40
2009,09,30,02,51,4.40
2009,09,30,02,52,4.40
2009,09,30,02,53,4.40
2009,09,30,02,54,4.30
2009,09,30,02,55,4.30
2009,09,30,02,56,4.30
2009,09,30,02,57,4.30
2009,09,30,02,58,4.20
2009,09,30,02,59,4.20
2009,09,30,03,00,4.20
2009,09,30,03,01,4.20
2009,09,30,03,02,4.10
2009,09,30,03,03,4.10
2009,09,30,03,04,4.10
2009,09,30,03,05,4.10
2009,09,30,03,06,4.10
2009,09,30,03,07,4.10
2009,09,30,03,08,4.00
2009,09,30,03,09,4.00
2009,09,30,03,10,4.00
2009,09,30,03,11,4.00
2009,09,30,03,12,3.90
2009,09,30,03,13,3.90
2009,09,30,03,14,3.90
2009,09,30,03,15,3.90
2009,09,30,03,16,3.90
2009,09,30,03,17,3.90
2009,09,30,03,18,3.80
2009,09,30,03,19,3.80
2009,09,30,03,20,3.80
2009,09,30,03,21,3.80
2009,09,30,03,22,3.80
2009,09,30,03,23,3.80
2009,09,30,03,24,3.80
2009,09,30,03,25,3.70
2009,09,30,03,26,3.70
2009,09,30,03,27,3.70
2009,09,30,03,28,3.70
2009,09,30,03,29,3.70
2009,09,30,03,30,3.70
2009,09,30,03,31,3.70
2009,09,30,03,32,3.60
2009,09,30,03,33,3.60
2009,09,30,03,34,3.60
2009,09,30,03,35,3.60
2009,09,30,03,36,3.60
2009,09,30,03,37,3.60
2009,09,30,03,38,3.60
2009,09,30,03,39,3.50
2009,09,30,03,40,3.50
2009,09,30,03,41,3.50
2009,09,30,03,42,3.50
2009,09,30,03,43,3.50
2009,09,30,03,44,3.50
2009,09,30,03,45,3.50
2009,09,30,03,46,3.50
2009,09,30,03,47,3.40
2009,09,30,03,48,3.40
2009,09,30,03,49,3.40
2009,09,30,03,50,3.40
2009,09,30,03,51,3.40
2009,09,30,03,52,3.30
2009,09,30,03,53,3.30
2009,09,30,03,54,3.30
2009,09,30,03,55,3.30
2009,09,30,03,56,3.30
2009,09,30,03,57,3.30
2009,09,30,03,58,3.30
2009,09,30,03,59,3.30
2009,09,30,04,00,3.30
2009,09,30,04,01,3.30
2009,09,30,04,02,3.30
2009,09,30,04,03,3.30
2009,09,30,04,04,3.20
2009,09,30,04,18,3.20
2009,09,30,04,19,3.20
2009,09,30,04,20,3.20
2009,09,30,04,21,3.20
2009,09,30,04,22,3.20
2009,09,30,04,23,3.20
2009,09,30,04,24,3.20
2009,09,30,04,25,3.20
2009,09,30,04,26,3.20
2009,09,30,04,27,3.10
2009,09,30,04,28,3.10
2009,09,30,04,29,3.10
2009,09,30,04,30,3.10
2009,09,30,04,31,3.10
2009,09,30,04,32,3.10
2009,09,30,04,33,3.10
2009,09,30,04,34,3.10
2009,09,30,04,35,3.20
2009,09,30,04,36,3.20
2009,09,30,04,37,3.20
2009,09,30,04,38,3.20
2009,09,30,04,39,3.20
2009,09,30,04,40,3.20
2009,09,30,04,41,3.20
2009,09,30,04,42,3.20
2009,09,30,04,43,3.20
2009,09,30,04,44,3.20
2009,09,30,04,45,3.20
2009,09,30,04,46,3.20
2009,09,30,04,47,3.30
2009,09,30,04,48,3.30
2009,09,30,04,49,3.30
2009,09,30,04,50,3.30
2009,09,30,04,51,3.30
2009,09,30,04,52,3.30
2009,09,30,04,53,3.30
2009,09,30,04,54,3.30
2009,09,30,04,55,3.30
2009,09,30,04,56,3.30
2009,09,30,04,57,3.30
2009,09,30,04,58,3.30
2009,09,30,04,59,3.30
2009,09,30,05,00,3.30
2009,09,30,05,01,3.40
2009,09,30,05,02,3.40
2009,09,30,05,03,3.40
2009,09,30,05,04,3.40
2009,09,30,05,05,3.40
2009,09,30,05,06,3.40
2009,09,30,05,07,3.40
2009,09,30,05,08,3.40
2009,09,30,05,09,3.40
2009,09,30,05,10,3.40
2009,09,30,05,11,3.40
2009,09,30,05,12,3.40
2009,09,30,05,13,3.40
2009,09,30,05,14,3.40
2009,09,30,05,15,3.40
2009,09,30,05,16,3.40
2009,09,30,05,17,3.50
2009,09,30,05,18,3.50
2009,09,30,05,19,3.50
2009,09,30,05,20,3.50
2009,09,30,05,21,3.50
2009,09,30,05,22,3.50
2009,09,30,05,23,3.50
2009,09,30,05,24,3.60
2009,09,30,05,25,3.60
2009,09,30,05,26,3.60
2009,09,30,05,27,3.60
2009,09,30,05,28,3.60
2009,09,30,05,29,3.60
2009,09,30,05,30,3.60
2009,09,30,05,31,3.60
2009,09,30,05,32,3.60
2009,09,30,05,33,3.70
2009,09,30,05,34,3.70
2009,09,30,05,35,3.70
2009,09,30,05,36,3.70
2009,09,30,05,37,3.70
2009,09,30,05,38,3.70
2009,09,30,05,39,3.70
2009,09,30,05,40,3.70
2009,09,30,05,41,3.70
2009,09,30,05,42,3.80
2009,09,30,05,43,3.80
2009,09,30,05,44,3.80
2009,09,30,05,45,3.80
2009,09,30,05,46,3.80
2009,09,30,05,47,3.80
2009,09,30,05,48,3.80
2009,09,30,05,49,3.80
2009,09,30,05,50,3.90
2009,09,30,05,51,3.90
2009,09,30,05,52,3.90
2009,09,30,05,53,3.90
2009,09,30,05,54,3.90
2009,09,30,05,55,3.90
2009,09,30,05,56,3.90
2009,09,30,05,57,3.90
2009,09,30,05,58,3.90
2009,09,30,05,59,4.00
2009,09,30,06,00,4.00
2009,09,30,06,01,4.00
2009,09,30,06,02,4.00
2009,09,30,06,03,4.00
2009,09,30,06,04,4.00
2009,09,30,06,05,4.00
2009,09,30,06,06,4.10
2009,09,30,06,07,4.10
2009,09,30,06,08,4.10
2009,09,30,06,09,4.10
2009,09,30,06,10,4.10
2009,09,30,06,11,4.10
2009,09,30,06,12,4.10
2009,09,30,06,13,4.10
2009,09,30,06,14,4.10
2009,09,30,06,15,4.10
2009,09,30,06,16,4.10
2009,09,30,06,17,4.10
2009,09,30,06,18,4.10
2009,09,30,06,19,4.10
2009,09,30,06,20,4.10
2009,09,30,06,21,4.10
2009,09,30,06,22,4.10
2009,09,30,06,23,4.10
2009,09,30,06,24,4.20
2009,09,30,06,25,4.20
2009,09,30,06,26,4.20
2009,09,30,06,27,4.20
2009,09,30,06,28,4.20
2009,09,30,06,29,4.20
2009,09,30,06,30,4.20
2009,09,30,06,31,4.20
2009,09,30,06,32,4.20
2009,09,30,06,33,4.20
2009,09,30,06,34,4.20
2009,09,30,06,35,4.20
2009,09,30,06,36,4.30
2009,09,30,06,37,4.30
2009,09,30,06,38,4.30
2009,09,30,06,39,4.30
2009,09,30,06,40,4.30
2009,09,30,06,41,4.30
2009,09,30,06,42,4.30
2009,09,30,06,43,4.30
2009,09,30,06,44,4.30
2009,09,30,06,45,4.30
2009,09,30,06,46,4.30
2009,09,30,06,47,4.30
2009,09,30,06,48,4.40
2009,09,30,06,49,4.40
2009,09,30,06,50,4.40
2009,09,30,06,51,4.40
2009,09,30,06,52,4.40
2009,09,30,06,53,4.40
2009,09,30,06,54,4.40
2009,09,30,06,55,4.40
2009,09,30,06,56,4.40
2009,09,30,06,57,4.40
2009,09,30,06,58,4.40
2009,09,30,06,59,4.40
2009,09,30,07,00,4.40
2009,09,30,07,01,4.40
2009,09,30,07,02,4.40
2009,09,30,07,03,4.40
2009,09,30,07,04,4.40
2009,09,30,07,05,4.40
2009,09,30,07,06,4.40
2009,09,30,07,07,4.40
2009,09,30,07,08,4.50
2009,09,30,07,09,4.50
2009,09,30,07,10,4.50
2009,09,30,07,11,4.50
2009,09,30,07,12,4.60
2009,09,30,07,13,4.60
2009,09,30,07,14,4.60
2009,09,30,07,15,4.60
2009,09,30,07,16,4.60
2009,09,30,07,17,4.60
2009,09,30,07,18,4.70
2009,09,30,07,19,4.70
2009,09,30,07,20,4.70
2009,09,30,07,21,4.70
2009,09,30,07,22,4.70
2009,09,30,07,23,4.70
2009,09,30,07,24,4.80
2009,09,30,07,25,4.80
2009,09,30,07,26,4.80
2009,09,30,07,27,4.80
2009,09,30,07,28,4.80
2009,09,30,07,29,4.80
2009,09,30,07,30,4.80
2009,09,30,07,31,4.80
2009,09,30,07,32,4.80
2009,09,30,07,33,4.80
2009,09,30,07,34,4.80
2009,09,30,07,35,4.80
2009,09,30,07,36,4.90
2009,09,30,07,37,4.90
2009,09,30,07,38,4.90
2009,09,30,07,39,4.90
2009,09,30,07,40,4.90
2009,09,30,07,41,4.90
2009,09,30,07,42,4.90
2009,09,30,07,43,4.90
2009,09,30,07,44,4.90
2009,09,30,07,45,4.90
2009,09,30,07,46,5.00
2009,09,30,07,47,5.00
2009,09,30,07,48,5.00
2009,09,30,07,49,5.00
2009,09,30,07,50,5.00
2009,09,30,07,51,5.00
2009,09,30,07,52,5.00
2009,09,30,07,53,5.00
2009,09,30,07,54,5.00
2009,09,30,07,55,5.00
2009,09,30,07,56,5.00
2009,09,30,07,57,5.00
2009,09,30,07,58,5.00
2009,09,30,07,59,5.00
2009,09,30,08,00,5.00
2009,09,30,08,01,5.00
2009,09,30,08,02,5.00
2009,09,30,08,03,5.00
2009,09,30,08,04,5.00
2009,09,30,08,05,5.00
2009,09,30,08,06,5.00
2009,09,30,08,07,5.10
2009,09,30,08,08,5.10
2009,09,30,08,09,5.10
2009,09,30,08,10,5.10
2009,09,30,08,11,5.10
2009,09,30,08,12,5.10
2009,09,30,08,13,5.10
2009,09,30,08,14,5.10
2009,09,30,08,15,5.10
2009,09,30,08,16,5.10
2009,09,30,08,17,5.20
2009,09,30,08,18,5.20
2009,09,30,08,19,5.20
2009,09,30,08,20,5.20
2009,09,30,08,21,5.30
2009,09,30,08,22,5.30
2009,09,30,08,23,5.30
2009,09,30,08,24,5.30
2009,09,30,08,25,5.30
2009,09,30,08,26,5.30
2009,09,30,08,27,5.40
2009,09,30,08,28,5.40
2009,09,30,08,29,5.40
2009,09,30,08,30,5.40
2009,09,30,08,31,5.40
2009,09,30,08,32,5.40
2009,09,30,08,33,5.40
2009,09,30,08,34,5.40
2009,09,30,08,35,5.50
2009,09,30,08,36,5.50
2009,09,30,08,37,5.50
2009,09,30,08,38,5.50
2009,09,30,08,39,5.60
2009,09,30,08,40,5.60
2009,09,30,08,41,5.60
2009,09,30,08,42,5.60
2009,09,30,08,43,5.70
2009,09,30,08,44,5.70
2009,09,30,08,45,5.70
2009,09,30,08,46,5.70
2009,09,30,08,47,5.80
2009,09,30,08,48,5.80
2009,09,30,08,49,5.80
2009,09,30,08,50,5.80
2009,09,30,08,51,5.90
2009,09,30,08,52,5.90
2009,09,30,08,53,5.90
2009,09,30,08,54,6.00
2009,09,30,08,55,6.00
2009,09,30,08,56,6.10
2009,09,30,08,57,6.20
2009,09,30,08,58,6.20
2009,09,30,08,59,6.30
2009,09,30,09,00,6.30
2009,09,30,09,01,6.30
2009,09,30,09,02,6.30
2009,09,30,09,03,6.30
2009,09,30,09,04,6.30
2009,09,30,09,05,6.30
2009,09,30,09,06,6.30
2009,09,30,09,07,6.40
2009,09,30,09,08,6.40
2009,09,30,09,09,6.40
2009,09,30,09,10,6.50
2009,09,30,09,11,6.50
2009,09,30,09,12,6.50
2009,09,30,09,13,6.60
2009,09,30,09,14,6.60
2009,09,30,09,15,6.60
2009,09,30,09,16,6.60
2009,09,30,09,17,6.50
2009,09,30,09,18,6.50
2009,09,30,09,19,6.40
2009,09,30,09,20,6.30
2009,09,30,09,21,6.30
2009,09,30,09,22,6.20
2009,09,30,09,23,6.20
2009,09,30,09,24,6.20
2009,09,30,09,25,6.20
2009,09,30,09,26,6.20
2009,09,30,09,27,6.20
2009,09,30,09,28,6.20
2009,09,30,09,29,6.30
2009,09,30,09,30,6.30
2009,09,30,09,31,6.30
2009,09,30,09,32,6.30
2009,09,30,09,33,6.30
2009,09,30,09,34,6.40
2009,09,30,09,35,6.40
2009,09,30,09,36,6.40
2009,09,30,09,37,6.40
2009,09,30,09,38,6.40
2009,09,30,09,39,6.40
2009,09,30,09,40,6.40
2009,09,30,09,41,6.50
2009,09,30,09,42,6.50
2009,09,30,09,43,6.50
2009,09,30,09,44,6.60
2009,09,30,09,45,6.60
2009,09,30,09,46,6.70
2009,09,30,09,47,6.70
2009,09,30,09,48,6.80
2009,09,30,09,49,6.80
2009,09,30,09,50,6.90
2009,09,30,09,51,6.90
2009,09,30,09,52,7.00
2009,09,30,09,53,7.00
2009,09,30,09,54,7.10
2009,09,30,09,55,7.10
2009,09,30,09,56,7.20
2009,09,30,09,57,7.20
2009,09,30,09,58,7.30
2009,09,30,09,59,7.30
2009,09,30,10,00,7.40
2009,09,30,10,01,7.40
2009,09,30,10,02,7.50
2009,09,30,10,03,7.60
2009,09,30,10,04,7.60
2009,09,30,10,05,7.70
2009,09,30,10,06,7.80
2009,09,30,10,07,7.90
2009,09,30,10,08,8.00
2009,09,30,10,09,8.10
2009,09,30,10,10,8.30
2009,09,30,10,11,8.40
2009,09,30,10,12,8.50
2009,09,30,10,13,8.60
2009,09,30,10,14,8.70
2009,09,30,10,15,8.80
2009,09,30,10,16,8.90
2009,09,30,10,17,8.90
2009,09,30,10,18,9.00
2009,09,30,10,19,9.10
2009,09,30,10,20,9.20
2009,09,30,10,21,9.30
2009,09,30,10,22,9.30
2009,09,30,10,23,9.40
2009,09,30,10,24,9.40
2009,09,30,10,25,9.50
2009,09,30,10,26,9.50
2009,09,30,10,27,9.60
2009,09,30,10,28,9.60
2009,09,30,10,29,9.60
2009,09,30,10,30,9.70
2009,09,30,10,31,9.70
2009,09,30,10,32,9.80
2009,09,30,10,33,9.90
2009,09,30,10,34,10.00
2009,09,30,10,35,10.10
2009,09,30,10,36,10.20
2009,09,30,10,37,10.30
2009,09,30,10,38,10.30
2009,09,30,10,39,10.40
2009,09,30,10,40,10.30
2009,09,30,10,41,10.30
2009,09,30,10,42,10.30
2009,09,30,10,43,10.40
2009,09,30,10,44,10.40
2009,09,30,10,45,10.40
2009,09,30,10,46,10.40
2009,09,30,10,47,10.40
2009,09,30,10,48,10.40
2009,09,30,10,49,10.40
2009,09,30,10,50,10.40
2009,09,30,10,51,10.40
2009,09,30,10,52,10.40
2009,09,30,10,53,10.40
2009,09,30,10,54,10.40
2009,09,30,10,55,10.30
2009,09,30,10,56,10.40
2009,09,30,10,57,10.40
2009,09,30,10,58,10.40
2009,09,30,10,59,10.40
2009,09,30,11,00,10.40
2009,09,30,11,01,10.40
2009,09,30,11,02,10.40
2009,09,30,11,03,10.40
2009,09,30,11,04,10.40
2009,09,30,11,05,10.40
2009,09,30,11,06,10.40
2009,09,30,11,07,10.40
2009,09,30,11,08,10.40
2009,09,30,11,09,10.40
2009,09,30,11,10,10.40
2009,09,30,11,11,10.50
2009,09,30,11,12,10.50
2009,09,30,11,13,10.40
2009,09,30,11,14,10.40
2009,09,30,11,15,10.40
2009,09,30,11,16,10.40
2009,09,30,11,17,10.40
2009,09,30,11,18,10.40
2009,09,30,11,19,10.40
2009,09,30,11,20,10.40
2009,09,30,11,21,10.40
2009,09,30,11,22,10.40
2009,09,30,11,23,10.40
2009,09,30,11,24,10.40
2009,09,30,11,25,10.30
2009,09,30,11,26,10.30
2009,09,30,11,27,10.30
2009,09,30,11,28,10.30
2009,09,30,11,29,10.30
2009,09,30,11,30,10.30
2009,09,30,11,31,10.20
2009,09,30,11,32,10.20
2009,09,30,11,33,10.20
2009,09,30,11,34,10.20
2009,09,30,11,35,10.20
2009,09,30,11,36,10.20
2009,09,30,11,37,10.20
2009,09,30,11,38,10.30
2009,09,30,11,39,10.40
2009,09,30,11,40,10.50
2009,09,30,11,41,10.50
2009,09,30,11,42,10.60
2009,09,30,11,43,10.70
2009,09,30,11,44,10.70
2009,09,30,11,45,10.80
2009,09,30,11,46,10.80
2009,09,30,11,47,10.90
2009,09,30,11,48,10.90
2009,09,30,11,49,10.90
2009,09,30,11,50,10.90
2009,09,30,11,51,11.00
2009,09,30,11,52,11.00
2009,09,30,11,53,11.10
2009,09,30,11,54,11.10
2009,09,30,11,55,11.20
2009,09,30,11,56,11.20
2009,09,30,11,57,11.20
2009,09,30,11,58,11.20
2009,09,30,11,59,11.30
2009,09,30,12,00,11.30
2009,09,30,12,01,11.20
2009,09,30,12,02,11.20
2009,09,30,12,03,11.20
2009,09,30,12,04,11.20
2009,09,30,12,05,11.10
2009,09,30,12,06,11.10
2009,09,30,12,07,11.10
2009,09,30,12,08,11.10
2009,09,30,12,09,11.20
2009,09,30,12,10,11.20
2009,09,30,12,11,11.30
2009,09,30,12,12,11.30
2009,09,30,12,13,11.30
2009,09,30,12,14,11.40
2009,09,30,12,15,11.50
2009,09,30,12,16,11.60
2009,09,30,12,17,11.60
2009,09,30,12,18,11.60
2009,09,30,12,19,11.50
2009,09,30,12,20,11.50
2009,09,30,12,21,11.60
2009,09,30,12,22,11.60
2009,09,30,12,23,11.60
2009,09,30,12,24,11.50
2009,09,30,12,25,11.50
2009,09,30,12,26,11.40
2009,09,30,12,27,11.40
2009,09,30,12,28,11.40
2009,09,30,12,29,11.40
2009,09,30,12,30,11.40
2009,09,30,12,31,11.40
2009,09,30,12,32,11.40
2009,09,30,12,33,11.40
2009,09,30,12,34,11.40
2009,09,30,12,35,11.50
2009,09,30,12,36,11.50
2009,09,30,12,37,11.60
2009,09,30,12,38,11.60
2009,09,30,12,39,11.60
2009,09,30,12,40,11.60
2009,09,30,12,41,11.70
2009,09,30,12,42,11.70
2009,09,30,12,43,11.80
2009,09,30,12,44,11.80
2009,09,30,12,45,11.80
2009,09,30,12,46,11.90
2009,09,30,12,47,12.00
2009,09,30,12,48,12.10
2009,09,30,12,49,12.10
2009,09,30,12,50,12.20
2009,09,30,12,51,12.20
2009,09,30,12,52,12.20
2009,09,30,12,53,12.10
2009,09,30,12,54,12.10
2009,09,30,12,55,12.10
2009,09,30,12,56,12.10
2009,09,30,12,57,12.10
2009,09,30,12,58,12.20
2009,09,30,12,59,12.20
2009,09,30,13,00,12.20
2009,09,30,13,01,12.20
2009,09,30,13,02,12.30
2009,09,30,13,03,12.30
2009,09,30,13,04,12.30
2009,09,30,13,05,12.30
2009,09,30,13,06,12.30
2009,09,30,13,07,12.30
2009,09,30,13,08,12.30
2009,09,30,13,09,12.30
2009,09,30,13,10,12.30
2009,09,30,13,11,12.50
2009,09,30,13,12,12.60
2009,09,30,13,13,12.60
2009,09,30,13,14,12.70
2009,09,30,13,15,12.70
2009,09,30,13,16,12.70
2009,09,30,13,17,12.70
2009,09,30,13,18,12.70
2009,09,30,13,19,12.70
2009,09,30,13,20,12.80
2009,09,30,13,21,12.80
2009,09,30,13,22,12.80
2009,09,30,13,23,12.80
2009,09,30,13,24,12.80
2009,09,30,13,25,12.90
2009,09,30,13,26,12.90
2009,09,30,13,27,13.00
2009,09,30,13,28,13.00
2009,09,30,13,29,13.00
2009,09,30,13,30,13.10
2009,09,30,13,31,13.10
2009,09,30,13,32,13.20
2009,09,30,13,33,13.30
2009,09,30,13,34,13.40
2009,09,30,13,35,13.40
2009,09,30,13,36,13.40
2009,09,30,13,37,13.40
2009,09,30,13,38,13.30
2009,09,30,13,39,13.30
2009,09,30,13,40,13.30
2009,09,30,13,41,13.30
2009,09,30,13,42,13.30
2009,09,30,13,43,13.40
2009,09,30,13,44,13.50
2009,09,30,13,45,13.50
2009,09,30,13,46,13.50
2009,09,30,13,47,13.50
2009,09,30,13,48,13.40
2009,09,30,13,49,13.40
2009,09,30,13,50,13.30
2009,09,30,13,51,13.30
2009,09,30,13,52,13.30
2009,09,30,13,53,13.30
2009,09,30,13,54,13.30
2009,09,30,13,55,13.30
2009,09,30,13,56,13.30
2009,09,30,13,57,13.40
2009,09,30,13,58,13.40
2009,09,30,13,59,13.40
2009,09,30,14,00,13.40
2009,09,30,14,01,13.40
2009,09,30,14,02,13.40
2009,09,30,14,03,13.50
2009,09,30,14,04,13.50
2009,09,30,14,05,13.60
2009,09,30,14,06,13.70
2009,09,30,14,07,13.80
2009,09,30,14,08,13.80
2009,09,30,14,09,13.90
2009,09,30,14,10,13.90
2009,09,30,14,11,13.90
2009,09,30,14,12,14.00
2009,09,30,14,13,13.90
2009,09,30,14,14,13.90
2009,09,30,14,15,14.00
2009,09,30,14,16,14.00
2009,09,30,14,17,13.90
2009,09,30,14,18,13.80
2009,09,30,14,19,13.80
2009,09,30,14,20,13.70
2009,09,30,14,21,13.70
2009,09,30,14,22,13.60
2009,09,30,14,23,13.60
2009,09,30,14,24,13.60
2009,09,30,14,25,13.50
2009,09,30,14,26,13.50
2009,09,30,14,27,13.40
2009,09,30,14,28,13.30
2009,09,30,14,29,13.30
2009,09,30,14,30,13.30
2009,09,30,14,31,13.40
2009,09,30,14,32,13.40
2009,09,30,14,33,13.50
2009,09,30,14,34,13.60
2009,09,30,14,35,13.60
2009,09,30,14,36,13.70
2009,09,30,14,37,13.70
2009,09,30,14,38,13.80
2009,09,30,14,39,13.80
2009,09,30,14,40,13.80
2009,09,30,14,41,13.80
2009,09,30,14,42,13.80
2009,09,30,14,43,13.70
2009,09,30,14,44,13.70
2009,09,30,14,45,13.60
2009,09,30,14,46,13.50
2009,09,30,14,47,13.40
2009,09,30,14,48,13.30
2009,09,30,14,49,13.20
2009,09,30,14,50,13.10
2009,09,30,14,51,13.00
2009,09,30,14,52,13.00
2009,09,30,14,53,13.00
2009,09,30,14,54,12.90
2009,09,30,14,55,12.90
2009,09,30,14,56,12.90
2009,09,30,14,57,12.90
2009,09,30,14,58,12.90
2009,09,30,14,59,12.90
2009,09,30,15,00,12.90
2009,09,30,15,01,12.90
2009,09,30,15,02,12.90
2009,09,30,15,03,12.90
2009,09,30,15,04,12.90
2009,09,30,15,05,12.90
2009,09,30,15,06,13.00
2009,09,30,15,07,13.00
2009,09,30,15,08,13.00
2009,09,30,15,09,13.10
2009,09,30,15,10,13.10
2009,09,30,15,11,13.10
2009,09,30,15,12,13.10
2009,09,30,15,13,13.10
2009,09,30,15,14,13.20
2009,09,30,15,15,13.20
2009,09,30,15,16,13.20
2009,09,30,15,17,13.20
2009,09,30,15,18,13.10
2009,09,30,15,19,13.10
2009,09,30,15,20,13.10
2009,09,30,15,21,13.20
2009,09,30,15,22,13.20
2009,09,30,15,23,13.20
2009,09,30,15,24,13.20
2009,09,30,15,25,13.20
2009,09,30,15,26,13.10
2009,09,30,15,27,13.00
2009,09,30,15,28,12.90
2009,09,30,15,29,12.90
2009,09,30,15,30,12.90
2009,09,30,15,31,12.90
2009,09,30,15,32,12.80
2009,09,30,15,33,12.80
2009,09,30,15,34,12.80
2009,09,30,15,35,12.70
2009,09,30,15,36,12.70
2009,09,30,15,37,12.70
2009,09,30,15,38,12.70
2009,09,30,15,39,12.70
2009,09,30,15,40,12.70
2009,09,30,15,41,12.70
2009,09,30,15,42,12.70
2009,09,30,15,43,12.70
2009,09,30,15,44,12.70
2009,09,30,15,45,12.70
2009,09,30,15,46,12.70
2009,09,30,15,47,12.60
2009,09,30,15,48,12.60
2009,09,30,15,49,12.60
2009,09,30,15,50,12.60
2009,09,30,15,51,12.50
2009,09,30,15,52,12.50
2009,09,30,15,53,12.40
2009,09,30,15,54,12.40
2009,09,30,15,55,12.40
2009,09,30,15,56,12.40
2009,09,30,15,57,12.40
2009,09,30,15,58,12.30
2009,09,30,15,59,12.30
2009,09,30,16,00,12.30
2009,09,30,16,01,12.30
2009,09,30,16,02,12.20
2009,09,30,16,03,12.20
2009,09,30,16,04,12.20
2009,09,30,16,05,12.20
2009,09,30,16,06,12.20
2009,09,30,16,07,12.20
2009,09,30,16,08,12.20
2009,09,30,16,09,12.20
2009,09,30,16,10,12.20
2009,09,30,16,11,12.20
2009,09,30,16,12,12.20
2009,09,30,16,13,12.20
2009,09,30,16,14,12.20
2009,09,30,16,15,12.20
2009,09,30,16,16,12.20
2009,09,30,16,17,12.20
2009,09,30,16,18,12.20
2009,09,30,16,19,12.20
2009,09,30,16,20,12.20
2009,09,30,16,21,12.20
2009,09,30,16,22,12.20
2009,09,30,16,23,12.20
2009,09,30,16,24,12.20
2009,09,30,16,25,12.20
2009,09,30,16,26,12.20
2009,09,30,16,27,12.20
2009,09,30,16,28,12.20
2009,09,30,16,29,12.20
2009,09,30,16,30,12.20
2009,09,30,16,31,12.20
2009,09,30,16,32,12.30
2009,09,30,16,33,12.30
2009,09,30,16,34,12.30
2009,09,30,16,35,12.30
2009,09,30,16,36,12.30
2009,09,30,16,37,12.20
2009,09,30,16,38,12.20
2009,09,30,16,39,12.20
2009,09,30,16,40,12.20
2009,09,30,16,41,12.20
2009,09,30,16,42,12.20
2009,09,30,16,43,12.20
2009,09,30,16,44,12.20
2009,09,30,16,45,12.20
2009,09,30,16,46,12.20
2009,09,30,16,47,12.20
2009,09,30,16,48,12.20
2009,09,30,16,49,12.20
2009,09,30,16,50,12.20
2009,09,30,16,51,12.20
2009,09,30,16,52,12.20
2009,09,30,16,53,12.20
2009,09,30,16,54,12.20
2009,09,30,16,55,12.20
2009,09,30,16,56,12.20
2009,09,30,16,57,12.20
2009,09,30,16,58,12.20
2009,09,30,16,59,12.20
2009,09,30,17,00,12.20
2009,09,30,17,01,12.20
2009,09,30,17,02,12.20
2009,09,30,17,03,12.20
2009,09,30,17,04,12.10
2009,09,30,17,05,12.10
2009,09,30,17,06,12.10
2009,09,30,17,07,12.10
2009,09,30,17,08,12.10
2009,09,30,17,09,12.00
2009,09,30,17,10,11.90
2009,09,30,17,11,11.90
2009,09,30,17,12,11.80
2009,09,30,17,13,11.80
2009,09,30,17,14,11.80
2009,09,30,17,15,11.80
2009,09,30,17,16,11.70
2009,09,30,17,17,11.70
2009,09,30,17,18,11.70
2009,09,30,17,19,11.70
2009,09,30,17,20,11.70
2009,09,30,17,21,11.70
2009,09,30,17,22,11.70
2009,09,30,17,23,11.60
2009,09,30,17,24,11.60
2009,09,30,17,25,11.60
2009,09,30,17,26,11.60
2009,09,30,17,27,11.60
2009,09,30,17,28,11.60
2009,09,30,17,29,11.60
2009,09,30,17,30,11.60
2009,09,30,17,31,11.60
2009,09,30,17,32,11.60
2009,09,30,17,33,11.60
2009,09,30,17,34,11.60
2009,09,30,17,35,11.60
2009,09,30,17,36,11.60
2009,09,30,17,37,11.60
2009,09,30,17,38,11.60
2009,09,30,17,39,11.50
2009,09,30,17,40,11.50
2009,09,30,17,41,11.50
2009,09,30,17,42,11.40
2009,09,30,17,43,11.40
2009,09,30,17,44,11.40
2009,09,30,17,45,11.40
2009,09,30,17,46,11.40
2009,09,30,17,47,11.40
2009,09,30,17,48,11.40
2009,09,30,17,49,11.30
2009,09,30,17,50,11.30
2009,09,30,17,51,11.30
2009,09,30,17,52,11.30
2009,09,30,17,53,11.30
2009,09,30,17,54,11.30
2009,09,30,17,55,11.20
2009,09,30,17,56,11.20
2009,09,30,17,57,11.20
2009,09,30,17,58,11.20
2009,09,30,17,59,11.20